Location: Croydon
(51.3762°N, 0.0982°W)
Time: 07:57:17
(UTC+00:00)

Altair - Pass Details

Date: 15 November 2019
Orbit: 1502 x 1682 km, 47.2° (Epoch: 08 December)

Event Time Altitude Azimuth Distance (km) Brightness Sun altitude
Rises 09:47:58 0° 285° (WNW) 4,668 9.6 15.6°
Reaches altitude 10° 09:51:11 10° 278° (W) 3,701 9.2 15.9°
Maximum altitude 09:59:38 40° 214° (SSW) 2,152 8.9 16.5°
Drops below altitude 10° 10:08:22 10° 149° (SSE) 3,813 12.0 17.0°
Sets 10:11:45 0° 142° (SE) 4,822 11.6 17.2°
